Retour au catalogue

CZ-6A DEB

ActifPO
NORAD 63394·DEBRIS·🇨🇳 China

Lancé Aug 6, 2024 depuis Taiyuan Satellite Launch Center

Loading…

Prochains Passages (prochaines 24 heures)

TLE

FraisSource: Space-Track

Époque: Sep 14, 2026, 10:49 UTC

1 63394U 24140ADR 26257.45075697  .00001057  00000-0  52005-3 0  9999
2 63394  88.9412 260.5165 0071181 282.5631  76.7601 14.15649494103300

Suivez CZ-6A DEB en temps réel avec AllMySat

Download on the App Store